contact:dominique.lefevre@mio.osupytheas.fr, maurice.libes@osupytheas.fr, didier.mallarino@osupytheas.fr
Project:EMSO http://www.emso-fr.org/EMSO-France
Depth: 2436.0 m
Title:EMSO Ligure Ouest : Data MII capteur MICROCAT
DateTime_Computer,Latitude,Longitude,Temperature,Conductivity,Pressure,DateTime_Instrument
DateTime_Computer,Latitude,Longitude,degC,S m-1,dbar,DateTime_Instrument
2022-01-20T00:00:52Z,42.805,6.029,13.3005,4.60045,2470.32,2022-1-20T02:02:23Z
2022-01-20T00:03:55Z,42.805,6.029,13.3004,4.60055,2470.297,2022-1-20T02:05:26Z
2022-01-20T00:06:58Z,42.805,6.029,13.3006,4.60060,2470.297,2022-1-20T02:08:30Z
2022-01-20T00:10:01Z,42.805,6.029,13.3003,4.60053,2470.297,2022-1-20T02:11:33Z
2022-01-20T00:13:04Z,42.805,6.029,13.3001,4.60049,2470.32,2022-1-20T02:14:36Z
2022-01-20T00:16:08Z,42.805,6.029,13.3005,4.60055,2470.334,2022-1-20T02:17:39Z
2022-01-20T00:19:11Z,42.805,6.029,13.3005,4.60061,2470.32,2022-1-20T02:20:42Z
2022-01-20T00:22:14Z,42.805,6.029,13.3003,4.60062,2470.297,2022-1-20T02:23:45Z
2022-01-20T00:25:17Z,42.805,6.029,13.3004,4.60066,2470.297,2022-1-20T02:26:48Z
2022-01-20T00:28:20Z,42.805,6.029,13.3006,4.60052,2470.32,2022-1-20T02:29:51Z
2022-01-20T00:31:23Z,42.805,6.029,13.3003,4.60047,2470.297,2022-1-20T02:32:55Z
2022-01-20T00:34:26Z,42.805,6.029,13.3003,4.60044,2470.287,2022-1-20T02:35:58Z
2022-01-20T00:37:29Z,42.805,6.029,13.3005,4.60049,2470.297,2022-1-20T02:39:01Z
2022-01-20T00:40:33Z,42.805,6.029,13.3004,4.60049,2470.297,2022-1-20T02:42:04Z
2022-01-20T00:43:36Z,42.805,6.029,13.3004,4.60042,2470.273,2022-1-20T02:45:07Z
2022-01-20T00:46:39Z,42.805,6.029,13.3005,4.60041,2470.287,2022-1-20T02:48:10Z
2022-01-20T00:49:42Z,42.805,6.029,13.3004,4.60038,2470.273,2022-1-20T02:51:13Z
2022-01-20T00:52:45Z,42.805,6.029,13.3006,4.60036,2470.31,2022-1-20T02:54:16Z
2022-01-20T00:55:48Z,42.805,6.029,13.3004,4.60036,2470.25,2022-1-20T02:57:19Z
2022-01-20T00:58:51Z,42.805,6.029,13.3004,4.60033,2470.297,2022-1-20T03:00:23Z
2022-01-20T01:01:54Z,42.805,6.029,13.3010,4.60036,2470.297,2022-1-20T03:03:26Z
2022-01-20T01:04:57Z,42.805,6.029,13.3007,4.60036,2470.287,2022-1-20T03:06:29Z
2022-01-20T01:08:01Z,42.805,6.029,13.3005,4.60036,2470.273,2022-1-20T03:09:32Z
2022-01-20T01:11:04Z,42.805,6.029,13.3006,4.60037,2470.264,2022-1-20T03:12:35Z
2022-01-20T01:14:07Z,42.805,6.029,13.3002,4.60037,2470.25,2022-1-20T03:15:38Z
2022-01-20T01:17:10Z,42.805,6.029,13.3000,4.60036,2470.25,2022-1-20T03:18:41Z
2022-01-20T01:20:13Z,42.805,6.029,13.3002,4.60035,2470.264,2022-1-20T03:21:44Z
2022-01-20T01:23:16Z,42.805,6.029,13.3000,4.60039,2470.25,2022-1-20T03:24:48Z
2022-01-20T01:26:19Z,42.805,6.029,13.3004,4.60037,2470.264,2022-1-20T03:27:51Z
2022-01-20T01:29:22Z,42.805,6.029,13.3001,4.60033,2470.264,2022-1-20T03:30:54Z
2022-01-20T01:32:26Z,42.805,6.029,13.3005,4.60034,2470.25,2022-1-20T03:33:57Z
2022-01-20T01:35:29Z,42.805,6.029,13.3005,4.60035,2470.227,2022-1-20T03:37:00Z
2022-01-20T01:38:32Z,42.805,6.029,13.3006,4.60036,2470.287,2022-1-20T03:40:03Z
2022-01-20T01:41:35Z,42.805,6.029,13.3004,4.60036,2470.273,2022-1-20T03:43:06Z
2022-01-20T01:44:38Z,42.805,6.029,13.3004,4.60035,2470.25,2022-1-20T03:46:09Z
2022-01-20T01:47:41Z,42.805,6.029,13.3002,4.60036,2470.273,2022-1-20T03:49:13Z
2022-01-20T01:50:44Z,42.805,6.029,13.3001,4.60036,2470.264,2022-1-20T03:52:16Z
2022-01-20T01:53:47Z,42.805,6.029,13.3005,4.60032,2470.264,2022-1-20T03:55:19Z
2022-01-20T01:56:51Z,42.805,6.029,13.2998,4.60039,2470.264,2022-1-20T03:58:22Z
2022-01-20T01:59:54Z,42.805,6.029,13.3000,4.60031,2470.273,2022-1-20T04:01:25Z
2022-01-20T02:02:57Z,42.805,6.029,13.3000,4.60031,2470.236,2022-1-20T04:04:28Z
2022-01-20T02:06:00Z,42.805,6.029,13.3004,4.60035,2470.25,2022-1-20T04:07:31Z
2022-01-20T02:09:03Z,42.805,6.029,13.3002,4.60035,2470.264,2022-1-20T04:10:34Z
2022-01-20T02:12:06Z,42.805,6.029,13.3005,4.60039,2470.203,2022-1-20T04:13:38Z
2022-01-20T02:15:09Z,42.805,6.029,13.3002,4.60037,2470.227,2022-1-20T04:16:41Z
2022-01-20T02:18:12Z,42.805,6.029,13.3006,4.60033,2470.203,2022-1-20T04:19:44Z
2022-01-20T02:21:16Z,42.805,6.029,13.3004,4.60036,2470.25,2022-1-20T04:22:47Z
2022-01-20T02:24:19Z,42.805,6.029,13.3006,4.60034,2470.264,2022-1-20T04:25:50Z
2022-01-20T02:27:22Z,42.805,6.029,13.3003,4.60037,2470.264,2022-1-20T04:28:53Z
2022-01-20T02:30:25Z,42.805,6.029,13.3006,4.60031,2470.264,2022-1-20T04:31:56Z
2022-01-20T02:33:28Z,42.805,6.029,13.3002,4.60038,2470.203,2022-1-20T04:34:59Z
2022-01-20T02:36:31Z,42.805,6.029,13.3004,4.60036,2470.25,2022-1-20T04:38:03Z
2022-01-20T02:39:34Z,42.805,6.029,13.3004,4.60035,2470.227,2022-1-20T04:41:06Z
2022-01-20T02:42:37Z,42.805,6.029,13.3003,4.60038,2470.227,2022-1-20T04:44:09Z
2022-01-20T02:45:41Z,42.805,6.029,13.3001,4.60034,2470.217,2022-1-20T04:47:12Z
2022-01-20T02:48:44Z,42.805,6.029,13.3002,4.60033,2470.264,2022-1-20T04:50:15Z
2022-01-20T02:51:47Z,42.805,6.029,13.3005,4.60032,2470.264,2022-1-20T04:53:18Z
2022-01-20T02:54:50Z,42.805,6.029,13.3005,4.60029,2470.25,2022-1-20T04:56:21Z
2022-01-20T02:57:53Z,42.805,6.029,13.3006,4.60033,2470.25,2022-1-20T04:59:24Z
2022-01-20T03:00:56Z,42.805,6.029,13.3002,4.60029,2470.25,2022-1-20T05:02:28Z
2022-01-20T03:04:00Z,42.805,6.029,13.3001,4.60029,2470.264,2022-1-20T05:05:31Z
2022-01-20T03:07:03Z,42.805,6.029,13.3005,4.60033,2470.25,2022-1-20T05:08:34Z
2022-01-20T03:10:06Z,42.805,6.029,13.3004,4.60031,2470.227,2022-1-20T05:11:38Z
2022-01-20T03:13:09Z,42.805,6.029,13.3002,4.60028,2470.273,2022-1-20T05:14:41Z
2022-01-20T03:16:12Z,42.805,6.029,13.3002,4.60031,2470.227,2022-1-20T05:17:44Z
2022-01-20T03:19:16Z,42.805,6.029,13.3000,4.60028,2470.25,2022-1-20T05:20:47Z
2022-01-20T03:22:19Z,42.805,6.029,13.3004,4.60035,2470.25,2022-1-20T05:23:50Z
2022-01-20T03:25:22Z,42.805,6.029,13.3000,4.60029,2470.264,2022-1-20T05:26:53Z
2022-01-20T03:28:25Z,42.805,6.029,13.3001,4.60030,2470.25,2022-1-20T05:29:56Z
2022-01-20T03:31:28Z,42.805,6.029,13.3006,4.60032,2470.25,2022-1-20T05:32:59Z
2022-01-20T03:34:31Z,42.805,6.029,13.3002,4.60032,2470.264,2022-1-20T05:36:03Z
2022-01-20T03:37:34Z,42.805,6.029,13.3002,4.60031,2470.227,2022-1-20T05:39:06Z
2022-01-20T03:40:37Z,42.805,6.029,13.3005,4.60029,2470.24,2022-1-20T05:42:09Z
2022-01-20T03:43:41Z,42.805,6.029,13.3001,4.60033,2470.25,2022-1-20T05:45:12Z
2022-01-20T03:46:44Z,42.805,6.029,13.3005,4.60030,2470.287,2022-1-20T05:48:15Z
2022-01-20T03:49:47Z,42.805,6.029,13.3005,4.60029,2470.24,2022-1-20T05:51:18Z
2022-01-20T03:52:50Z,42.805,6.029,13.3006,4.60031,2470.273,2022-1-20T05:54:21Z
2022-01-20T03:55:53Z,42.805,6.029,13.3005,4.60031,2470.25,2022-1-20T05:57:24Z
2022-01-20T03:58:56Z,42.805,6.029,13.3004,4.60030,2470.24,2022-1-20T06:00:28Z
2022-01-20T04:01:59Z,42.805,6.029,13.3004,4.60034,2470.273,2022-1-20T06:03:31Z
2022-01-20T04:05:02Z,42.805,6.029,13.3003,4.60039,2470.227,2022-1-20T06:06:34Z
2022-01-20T04:08:06Z,42.805,6.029,13.3005,4.60035,2470.264,2022-1-20T06:09:37Z
2022-01-20T04:11:09Z,42.805,6.029,13.3002,4.60033,2470.227,2022-1-20T06:12:40Z
2022-01-20T04:14:12Z,42.805,6.029,13.3005,4.60031,2470.24,2022-1-20T06:15:43Z
2022-01-20T04:17:15Z,42.805,6.029,13.3001,4.60029,2470.24,2022-1-20T06:18:46Z
2022-01-20T04:20:18Z,42.805,6.029,13.3003,4.60033,2470.273,2022-1-20T06:21:49Z
2022-01-20T04:23:21Z,42.805,6.029,13.3004,4.60029,2470.273,2022-1-20T06:24:53Z
2022-01-20T04:26:24Z,42.805,6.029,13.3003,4.60030,2470.25,2022-1-20T06:27:56Z
2022-01-20T04:29:27Z,42.805,6.029,13.3004,4.60031,2470.25,2022-1-20T06:30:59Z
2022-01-20T04:32:30Z,42.805,6.029,13.3005,4.60033,2470.31,2022-1-20T06:34:02Z
2022-01-20T04:35:34Z,42.805,6.029,13.3004,4.60033,2470.31,2022-1-20T06:37:05Z
2022-01-20T04:38:37Z,42.805,6.029,13.3005,4.60031,2470.273,2022-1-20T06:40:08Z
2022-01-20T04:41:40Z,42.805,6.029,13.3001,4.60031,2470.25,2022-1-20T06:43:11Z
2022-01-20T04:44:43Z,42.805,6.029,13.3006,4.60033,2470.273,2022-1-20T06:46:14Z
2022-01-20T04:47:46Z,42.805,6.029,13.3005,4.60031,2470.273,2022-1-20T06:49:18Z
2022-01-20T04:50:49Z,42.805,6.029,13.3001,4.60030,2470.273,2022-1-20T06:52:21Z
2022-01-20T04:53:52Z,42.805,6.029,13.3002,4.60031,2470.297,2022-1-20T06:55:24Z
2022-01-20T04:56:55Z,42.805,6.029,13.3004,4.60035,2470.301,2022-1-20T06:58:27Z
2022-01-20T04:59:59Z,42.805,6.029,13.3004,4.60031,2470.297,2022-1-20T07:01:30Z
2022-01-20T05:03:02Z,42.805,6.029,13.3004,4.60032,2470.283,2022-1-20T07:04:33Z
2022-01-20T05:06:05Z,42.805,6.029,13.3004,4.60032,2470.32,2022-1-20T07:07:36Z
2022-01-20T05:09:08Z,42.805,6.029,13.3002,4.60033,2470.25,2022-1-20T07:10:39Z
2022-01-20T05:12:11Z,42.805,6.029,13.3001,4.60033,2470.297,2022-1-20T07:13:42Z
2022-01-20T05:15:14Z,42.805,6.029,13.3003,4.60031,2470.31,2022-1-20T07:16:46Z
2022-01-20T05:18:17Z,42.805,6.029,13.3000,4.60031,2470.273,2022-1-20T07:19:49Z
2022-01-20T05:21:20Z,42.805,6.029,13.3006,4.60033,2470.31,2022-1-20T07:22:52Z
2022-01-20T05:24:24Z,42.805,6.029,13.3007,4.60031,2470.32,2022-1-20T07:25:55Z
2022-01-20T05:27:27Z,42.805,6.029,13.3006,4.60033,2470.297,2022-1-20T07:28:58Z
2022-01-20T05:30:30Z,42.805,6.029,13.3000,4.60034,2470.334,2022-1-20T07:32:01Z
2022-01-20T05:33:33Z,42.805,6.029,13.3004,4.60031,2470.287,2022-1-20T07:35:04Z
2022-01-20T05:36:36Z,42.805,6.029,13.3008,4.60031,2470.31,2022-1-20T07:38:07Z
2022-01-20T05:39:39Z,42.805,6.029,13.3003,4.60031,2470.334,2022-1-20T07:41:11Z
2022-01-20T05:42:42Z,42.805,6.029,13.3004,4.60035,2470.334,2022-1-20T07:44:14Z
2022-01-20T05:45:45Z,42.805,6.029,13.3003,4.60033,2470.357,2022-1-20T07:47:17Z
2022-01-20T05:48:49Z,42.805,6.029,13.3002,4.60034,2470.32,2022-1-20T07:50:20Z
2022-01-20T05:51:52Z,42.805,6.029,13.3008,4.60036,2470.32,2022-1-20T07:53:23Z
2022-01-20T05:54:55Z,42.805,6.029,13.3003,4.60031,2470.32,2022-1-20T07:56:26Z
2022-01-20T05:57:58Z,42.805,6.029,13.3004,4.60031,2470.334,2022-1-20T07:59:29Z
2022-01-20T06:01:01Z,42.805,6.029,13.3005,4.60035,2470.343,2022-1-20T08:02:32Z
2022-01-20T06:04:04Z,42.805,6.029,13.3003,4.60032,2470.343,2022-1-20T08:05:36Z
2022-01-20T06:07:07Z,42.805,6.029,13.3001,4.60029,2470.32,2022-1-20T08:08:39Z
2022-01-20T06:10:10Z,42.805,6.029,13.3006,4.60029,2470.343,2022-1-20T08:11:42Z
2022-01-20T06:13:13Z,42.805,6.029,13.3006,4.60031,2470.38,2022-1-20T08:14:45Z
2022-01-20T06:16:17Z,42.805,6.029,13.3004,4.60031,2470.343,2022-1-20T08:17:48Z
2022-01-20T06:19:20Z,42.805,6.029,13.3007,4.60032,2470.343,2022-1-20T08:20:51Z
2022-01-20T06:22:23Z,42.805,6.029,13.3004,4.60031,2470.357,2022-1-20T08:23:54Z
2022-01-20T06:25:26Z,42.805,6.029,13.3001,4.60028,2470.366,2022-1-20T08:26:57Z
2022-01-20T06:28:29Z,42.805,6.029,13.3004,4.60028,2470.38,2022-1-20T08:30:01Z
2022-01-20T06:31:32Z,42.805,6.029,13.3006,4.60029,2470.39,2022-1-20T08:33:04Z
2022-01-20T06:34:35Z,42.805,6.029,13.3002,4.60031,2470.39,2022-1-20T08:36:07Z
2022-01-20T06:37:38Z,42.805,6.029,13.3011,4.60030,2470.38,2022-1-20T08:39:10Z
2022-01-20T06:40:42Z,42.805,6.029,13.3004,4.60031,2470.376,2022-1-20T08:42:13Z
2022-01-20T06:43:45Z,42.805,6.029,13.3004,4.60030,2470.38,2022-1-20T08:45:16Z
2022-01-20T06:46:48Z,42.805,6.029,13.3002,4.60030,2470.39,2022-1-20T08:48:19Z
2022-01-20T06:49:51Z,42.805,6.029,13.3003,4.60029,2470.366,2022-1-20T08:51:22Z
2022-01-20T06:52:54Z,42.805,6.029,13.3000,4.60031,2470.39,2022-1-20T08:54:26Z
2022-01-20T06:55:57Z,42.805,6.029,13.3002,4.60032,2470.39,2022-1-20T08:57:29Z
2022-01-20T06:59:00Z,42.805,6.029,13.3001,4.60031,2470.413,2022-1-20T09:00:32Z
2022-01-20T07:02:03Z,42.805,6.029,13.3001,4.60032,2470.38,2022-1-20T09:03:35Z
2022-01-20T07:05:07Z,42.805,6.029,13.3003,4.60031,2470.39,2022-1-20T09:06:38Z
2022-01-20T07:08:10Z,42.805,6.029,13.3006,4.60029,2470.427,2022-1-20T09:09:41Z
2022-01-20T07:11:13Z,42.805,6.029,13.3006,4.60032,2470.39,2022-1-20T09:12:44Z
2022-01-20T07:14:16Z,42.805,6.029,13.3004,4.60036,2470.39,2022-1-20T09:15:47Z
2022-01-20T07:17:19Z,42.805,6.029,13.3001,4.60029,2470.413,2022-1-20T09:18:50Z
2022-01-20T07:20:22Z,42.805,6.029,13.3004,4.60029,2470.45,2022-1-20T09:21:54Z
2022-01-20T07:23:25Z,42.805,6.029,13.3001,4.60030,2470.39,2022-1-20T09:24:57Z
2022-01-20T07:26:28Z,42.805,6.029,13.3004,4.60031,2470.413,2022-1-20T09:28:00Z
2022-01-20T07:29:32Z,42.805,6.029,13.3005,4.60030,2470.45,2022-1-20T09:31:03Z
2022-01-20T07:32:35Z,42.805,6.029,13.3003,4.60031,2470.437,2022-1-20T09:34:06Z
2022-01-20T07:35:38Z,42.805,6.029,13.3003,4.60031,2470.437,2022-1-20T09:37:09Z
2022-01-20T07:38:41Z,42.805,6.029,13.3007,4.60031,2470.474,2022-1-20T09:40:12Z
2022-01-20T07:41:44Z,42.805,6.029,13.3006,4.60031,2470.45,2022-1-20T09:43:15Z
2022-01-20T07:44:47Z,42.805,6.029,13.3004,4.60033,2470.474,2022-1-20T09:46:19Z
2022-01-20T07:47:50Z,42.805,6.029,13.3007,4.60033,2470.474,2022-1-20T09:49:22Z
2022-01-20T07:50:53Z,42.805,6.029,13.3004,4.60031,2470.46,2022-1-20T09:52:25Z
2022-01-20T07:53:57Z,42.805,6.029,13.3007,4.60031,2470.413,2022-1-20T09:55:28Z
2022-01-20T07:57:00Z,42.805,6.029,13.3004,4.60031,2470.497,2022-1-20T09:58:31Z
2022-01-20T08:00:03Z,42.805,6.029,13.3006,4.60033,2470.46,2022-1-20T10:01:34Z
2022-01-20T08:03:06Z,42.805,6.029,13.3001,4.60035,2470.45,2022-1-20T10:04:37Z
2022-01-20T08:06:09Z,42.805,6.029,13.3002,4.60035,2470.46,2022-1-20T10:07:40Z
2022-01-20T08:09:12Z,42.805,6.029,13.3003,4.60031,2470.46,2022-1-20T10:10:44Z
2022-01-20T08:12:15Z,42.805,6.029,13.3005,4.60031,2470.474,2022-1-20T10:13:47Z
2022-01-20T08:15:18Z,42.805,6.029,13.3008,4.60033,2470.46,2022-1-20T10:16:50Z
2022-01-20T08:18:22Z,42.805,6.029,13.3007,4.60033,2470.437,2022-1-20T10:19:53Z
2022-01-20T08:21:25Z,42.805,6.029,13.3000,4.60034,2470.474,2022-1-20T10:22:56Z
2022-01-20T08:24:28Z,42.805,6.029,13.3005,4.60033,2470.46,2022-1-20T10:25:59Z
2022-01-20T08:27:31Z,42.805,6.029,13.3005,4.60034,2470.437,2022-1-20T10:29:02Z
2022-01-20T08:30:34Z,42.805,6.029,13.3005,4.60033,2470.474,2022-1-20T10:32:05Z
2022-01-20T08:33:37Z,42.805,6.029,13.3004,4.60032,2470.474,2022-1-20T10:35:09Z
2022-01-20T08:36:40Z,42.805,6.029,13.3004,4.60034,2470.45,2022-1-20T10:38:12Z
2022-01-20T08:39:43Z,42.805,6.029,13.3001,4.60032,2470.437,2022-1-20T10:41:15Z
2022-01-20T08:42:47Z,42.805,6.029,13.3006,4.60033,2470.45,2022-1-20T10:44:18Z
2022-01-20T08:45:50Z,42.805,6.029,13.3006,4.60040,2470.45,2022-1-20T10:47:21Z
2022-01-20T08:48:53Z,42.805,6.029,13.3007,4.60033,2470.45,2022-1-20T10:50:24Z
2022-01-20T08:51:56Z,42.805,6.029,13.3007,4.60032,2470.46,2022-1-20T10:53:27Z
2022-01-20T08:54:59Z,42.805,6.029,13.3004,4.60032,2470.46,2022-1-20T10:56:30Z
2022-01-20T08:58:02Z,42.805,6.029,13.3005,4.60031,2470.474,2022-1-20T10:59:34Z
2022-01-20T09:01:05Z,42.805,6.029,13.3005,4.60032,2470.474,2022-1-20T11:02:37Z
2022-01-20T09:04:08Z,42.805,6.029,13.3004,4.60031,2470.474,2022-1-20T11:05:40Z
2022-01-20T09:07:12Z,42.805,6.029,13.3005,4.60036,2470.45,2022-1-20T11:08:43Z
2022-01-20T09:10:15Z,42.805,6.029,13.3005,4.60033,2470.483,2022-1-20T11:11:46Z
2022-01-20T09:13:18Z,42.805,6.029,13.3006,4.60034,2470.483,2022-1-20T11:14:49Z
2022-01-20T09:16:21Z,42.805,6.029,13.3000,4.60034,2470.46,2022-1-20T11:17:52Z
2022-01-20T09:19:24Z,42.805,6.029,13.3004,4.60036,2470.413,2022-1-20T11:20:56Z
2022-01-20T09:22:27Z,42.805,6.029,13.3006,4.60035,2470.46,2022-1-20T11:23:59Z
2022-01-20T09:25:30Z,42.805,6.029,13.3006,4.60034,2470.437,2022-1-20T11:27:02Z
2022-01-20T09:28:33Z,42.805,6.029,13.3006,4.60034,2470.483,2022-1-20T11:30:05Z
2022-01-20T09:31:37Z,42.805,6.029,13.3004,4.60034,2470.46,2022-1-20T11:33:08Z
2022-01-20T09:34:40Z,42.805,6.029,13.3005,4.60033,2470.474,2022-1-20T11:36:11Z
2022-01-20T09:37:43Z,42.805,6.029,13.3004,4.60032,2470.437,2022-1-20T11:39:14Z
2022-01-20T09:40:46Z,42.805,6.029,13.3004,4.60035,2470.483,2022-1-20T11:42:17Z
2022-01-20T09:43:49Z,42.805,6.029,13.3004,4.60033,2470.46,2022-1-20T11:45:21Z
2022-01-20T09:46:52Z,42.805,6.029,13.3006,4.60039,2470.46,2022-1-20T11:48:24Z
2022-01-20T09:49:55Z,42.805,6.029,13.3009,4.60035,2470.46,2022-1-20T11:51:27Z
2022-01-20T09:52:58Z,42.805,6.029,13.3004,4.60035,2470.45,2022-1-20T11:54:30Z
2022-01-20T09:56:02Z,42.805,6.029,13.3005,4.60042,2470.437,2022-1-20T11:57:33Z
2022-01-20T09:59:05Z,42.805,6.029,13.3004,4.60032,2470.437,2022-1-20T12:00:36Z
2022-01-20T10:02:08Z,42.805,6.029,13.3006,4.60033,2470.46,2022-1-20T12:03:39Z
2022-01-20T10:05:11Z,42.805,6.029,13.3004,4.60037,2470.46,2022-1-20T12:06:42Z
2022-01-20T10:08:14Z,42.805,6.029,13.3006,4.60036,2470.46,2022-1-20T12:09:46Z
2022-01-20T10:11:17Z,42.805,6.029,13.3006,4.60034,2470.46,2022-1-20T12:12:49Z
2022-01-20T10:14:20Z,42.805,6.029,13.3007,4.60034,2470.437,2022-1-20T12:15:52Z
2022-01-20T10:17:23Z,42.805,6.029,13.3002,4.60036,2470.437,2022-1-20T12:18:55Z
2022-01-20T10:20:27Z,42.805,6.029,13.3004,4.60035,2470.45,2022-1-20T12:21:58Z
2022-01-20T10:23:30Z,42.805,6.029,13.3006,4.60046,2470.437,2022-1-20T12:25:01Z
2022-01-20T10:26:33Z,42.805,6.029,13.3005,4.60037,2470.423,2022-1-20T12:28:04Z
2022-01-20T10:29:36Z,42.805,6.029,13.3003,4.60034,2470.45,2022-1-20T12:31:07Z
2022-01-20T10:32:39Z,42.805,6.029,13.3006,4.60038,2470.45,2022-1-20T12:34:11Z
2022-01-20T10:35:42Z,42.805,6.029,13.3005,4.60036,2470.437,2022-1-20T12:37:14Z
2022-01-20T10:38:45Z,42.805,6.029,13.3004,4.60036,2470.413,2022-1-20T12:40:17Z
2022-01-20T10:41:49Z,42.805,6.029,13.3004,4.60042,2470.46,2022-1-20T12:43:20Z
2022-01-20T10:44:52Z,42.805,6.029,13.3008,4.60037,2470.437,2022-1-20T12:46:23Z
2022-01-20T10:47:55Z,42.805,6.029,13.3005,4.60039,2470.437,2022-1-20T12:49:26Z
2022-01-20T10:50:58Z,42.805,6.029,13.3022,4.60042,2470.413,2022-1-20T12:52:29Z
2022-01-20T10:54:01Z,42.805,6.029,13.3006,4.60038,2470.45,2022-1-20T12:55:32Z
2022-01-20T10:57:04Z,42.805,6.029,13.3011,4.60073,2470.437,2022-1-20T12:58:36Z
2022-01-20T11:00:07Z,42.805,6.029,13.3034,4.60072,2470.413,2022-1-20T13:01:39Z
2022-01-20T11:03:10Z,42.805,6.029,13.3034,4.60069,2470.427,2022-1-20T13:04:42Z
2022-01-20T11:06:14Z,42.805,6.029,13.3036,4.60063,2470.413,2022-1-20T13:07:45Z
2022-01-20T11:09:17Z,42.805,6.029,13.3028,4.60077,2470.413,2022-1-20T13:10:48Z
2022-01-20T11:12:20Z,42.805,6.029,13.3038,4.60084,2470.413,2022-1-20T13:13:51Z
2022-01-20T11:15:23Z,42.805,6.029,13.3039,4.60084,2470.404,2022-1-20T13:16:54Z
2022-01-20T11:18:26Z,42.805,6.029,13.3021,4.60078,2470.39,2022-1-20T13:19:57Z
2022-01-20T11:21:29Z,42.805,6.029,13.3027,4.60082,2470.413,2022-1-20T13:23:01Z
2022-01-20T11:24:32Z,42.805,6.029,13.3021,4.60096,2470.427,2022-1-20T13:26:04Z
2022-01-20T11:27:35Z,42.805,6.029,13.3029,4.60078,2470.38,2022-1-20T13:29:07Z
2022-01-20T11:30:39Z,42.805,6.029,13.3030,4.60085,2470.39,2022-1-20T13:32:10Z
2022-01-20T11:33:42Z,42.805,6.029,13.3025,4.60096,2470.404,2022-1-20T13:35:13Z
2022-01-20T11:36:45Z,42.805,6.029,13.3057,4.60109,2470.404,2022-1-20T13:38:16Z
2022-01-20T11:39:48Z,42.805,6.029,13.3021,4.60108,2470.38,2022-1-20T13:41:19Z
2022-01-20T11:42:51Z,42.805,6.029,13.3019,4.60122,2470.38,2022-1-20T13:44:22Z
2022-01-20T11:45:54Z,42.805,6.029,13.3048,4.60123,2470.427,2022-1-20T13:47:26Z
2022-01-20T11:48:57Z,42.805,6.029,13.3031,4.60132,2470.39,2022-1-20T13:50:29Z
2022-01-20T11:52:00Z,42.805,6.029,13.3022,4.60102,2470.38,2022-1-20T13:53:32Z
2022-01-20T11:55:04Z,42.805,6.029,13.3036,4.60105,2470.404,2022-1-20T13:56:35Z
2022-01-20T11:58:07Z,42.805,6.029,13.3015,4.60113,2470.366,2022-1-20T13:59:38Z
2022-01-20T12:01:10Z,42.805,6.029,13.3030,4.60130,2470.38,2022-1-20T14:02:41Z
2022-01-20T12:04:13Z,42.805,6.029,13.3027,4.60095,2470.38,2022-1-20T14:05:44Z
2022-01-20T12:07:16Z,42.805,6.029,13.3054,4.60114,2470.366,2022-1-20T14:08:47Z
2022-01-20T12:10:19Z,42.805,6.029,13.3022,4.60117,2470.357,2022-1-20T14:11:51Z
2022-01-20T12:13:22Z,42.805,6.029,13.3028,4.60132,2470.343,2022-1-20T14:14:54Z
2022-01-20T12:16:25Z,42.805,6.029,13.3031,4.60116,2470.343,2022-1-20T14:17:57Z
2022-01-20T12:19:29Z,42.805,6.029,13.3021,4.60121,2470.343,2022-1-20T14:21:00Z
2022-01-20T12:22:32Z,42.805,6.029,13.3041,4.60116,2470.38,2022-1-20T14:24:03Z
2022-01-20T12:25:35Z,42.805,6.029,13.3022,4.60099,2470.38,2022-1-20T14:27:06Z
2022-01-20T12:28:38Z,42.805,6.029,13.3031,4.60100,2470.357,2022-1-20T14:30:09Z
2022-01-20T12:31:41Z,42.805,6.029,13.3033,4.60117,2470.334,2022-1-20T14:33:12Z
2022-01-20T12:34:44Z,42.805,6.029,13.3025,4.60101,2470.38,2022-1-20T14:36:16Z
2022-01-20T12:37:47Z,42.805,6.029,13.3039,4.60092,2470.334,2022-1-20T14:39:19Z
2022-01-20T12:40:50Z,42.805,6.029,13.3048,4.60116,2470.38,2022-1-20T14:42:22Z
2022-01-20T12:43:54Z,42.805,6.029,13.3027,4.60117,2470.343,2022-1-20T14:45:25Z
2022-01-20T12:46:57Z,42.805,6.029,13.3041,4.60136,2470.343,2022-1-20T14:48:28Z
2022-01-20T12:50:00Z,42.805,6.029,13.3016,4.60120,2470.32,2022-1-20T14:51:31Z
2022-01-20T12:53:03Z,42.805,6.029,13.3007,4.60104,2470.334,2022-1-20T14:54:34Z
2022-01-20T12:56:06Z,42.805,6.029,13.3016,4.60099,2470.32,2022-1-20T14:57:38Z
2022-01-20T12:59:09Z,42.805,6.029,13.3022,4.60116,2470.343,2022-1-20T15:00:41Z
2022-01-20T13:02:12Z,42.805,6.029,13.3014,4.60097,2470.334,2022-1-20T15:03:44Z
2022-01-20T13:05:16Z,42.805,6.029,13.3017,4.60074,2470.32,2022-1-20T15:06:47Z
2022-01-20T13:08:19Z,42.805,6.029,13.3027,4.60092,2470.32,2022-1-20T15:09:50Z
2022-01-20T13:11:22Z,42.805,6.029,13.3018,4.60096,2470.357,2022-1-20T15:12:53Z
2022-01-20T13:14:25Z,42.805,6.029,13.3026,4.60113,2470.357,2022-1-20T15:15:56Z
2022-01-20T13:17:28Z,42.805,6.029,13.3024,4.60098,2470.31,2022-1-20T15:18:59Z
2022-01-20T13:20:31Z,42.805,6.029,13.3028,4.60134,2470.343,2022-1-20T15:22:03Z
2022-01-20T13:23:34Z,42.805,6.029,13.3029,4.60104,2470.334,2022-1-20T15:25:06Z
2022-01-20T13:26:37Z,42.805,6.029,13.3022,4.60097,2470.32,2022-1-20T15:28:09Z
2022-01-20T13:29:41Z,42.805,6.029,13.3040,4.60099,2470.32,2022-1-20T15:31:12Z
2022-01-20T13:32:44Z,42.805,6.029,13.3030,4.60117,2470.32,2022-1-20T15:34:15Z
2022-01-20T13:35:47Z,42.805,6.029,13.3033,4.60104,2470.31,2022-1-20T15:37:18Z
2022-01-20T13:38:50Z,42.805,6.029,13.3021,4.60113,2470.334,2022-1-20T15:40:21Z
2022-01-20T13:41:53Z,42.805,6.029,13.3025,4.60092,2470.31,2022-1-20T15:43:24Z
2022-01-20T13:44:56Z,42.805,6.029,13.3028,4.60112,2470.334,2022-1-20T15:46:28Z
2022-01-20T13:47:59Z,42.805,6.029,13.3030,4.60078,2470.31,2022-1-20T15:49:31Z
2022-01-20T13:51:02Z,42.805,6.029,13.3027,4.60134,2470.297,2022-1-20T15:52:34Z
2022-01-20T13:54:06Z,42.805,6.029,13.3037,4.60101,2470.287,2022-1-20T15:55:37Z
2022-01-20T13:57:09Z,42.805,6.029,13.3051,4.60132,2470.31,2022-1-20T15:58:40Z
2022-01-20T14:00:12Z,42.805,6.029,13.3056,4.60115,2470.31,2022-1-20T16:01:43Z
2022-01-20T14:03:15Z,42.805,6.029,13.3061,4.60081,2470.273,2022-1-20T16:04:46Z
2022-01-20T14:06:18Z,42.805,6.029,13.3064,4.60136,2470.273,2022-1-20T16:07:49Z
2022-01-20T14:09:21Z,42.805,6.029,13.3063,4.60090,2470.273,2022-1-20T16:10:53Z
2022-01-20T14:12:24Z,42.805,6.029,13.3078,4.60122,2470.25,2022-1-20T16:13:56Z
2022-01-20T14:15:27Z,42.805,6.029,13.3080,4.60131,2470.297,2022-1-20T16:16:59Z
2022-01-20T14:18:31Z,42.805,6.029,13.3063,4.60142,2470.287,2022-1-20T16:20:02Z
2022-01-20T14:21:34Z,42.805,6.029,13.3039,4.60135,2470.264,2022-1-20T16:23:05Z
2022-01-20T14:24:37Z,42.805,6.029,13.3053,4.60104,2470.287,2022-1-20T16:26:08Z
2022-01-20T14:27:40Z,42.805,6.029,13.3039,4.60080,2470.273,2022-1-20T16:29:11Z
2022-01-20T14:30:43Z,42.805,6.029,13.3050,4.60146,2470.25,2022-1-20T16:32:15Z
2022-01-20T14:33:46Z,42.805,6.029,13.3054,4.60106,2470.25,2022-1-20T16:35:18Z
2022-01-20T14:36:49Z,42.805,6.029,13.3066,4.60079,2470.287,2022-1-20T16:38:21Z
2022-01-20T14:39:52Z,42.805,6.029,13.3077,4.60063,2470.287,2022-1-20T16:41:24Z
2022-01-20T14:42:56Z,42.805,6.029,13.3088,4.60060,2470.287,2022-1-20T16:44:27Z
2022-01-20T14:45:59Z,42.805,6.029,13.3046,4.60061,2470.25,2022-1-20T16:47:30Z
2022-01-20T14:49:02Z,42.805,6.029,13.3031,4.60086,2470.287,2022-1-20T16:50:33Z
2022-01-20T14:52:05Z,42.805,6.029,13.3096,4.60114,2470.273,2022-1-20T16:53:36Z
2022-01-20T14:55:08Z,42.805,6.029,13.3051,4.60188,2470.25,2022-1-20T16:56:40Z
2022-01-20T14:58:11Z,42.805,6.029,13.3062,4.60109,2470.31,2022-1-20T16:59:43Z
2022-01-20T15:01:14Z,42.805,6.029,13.3048,4.60087,2470.264,2022-1-20T17:02:46Z
2022-01-20T15:04:18Z,42.805,6.029,13.3078,4.60089,2470.273,2022-1-20T17:05:49Z
2022-01-20T15:07:21Z,42.805,6.029,13.3055,4.60062,2470.264,2022-1-20T17:08:52Z
2022-01-20T15:10:24Z,42.805,6.029,13.3033,4.60087,2470.31,2022-1-20T17:11:55Z
2022-01-20T15:13:27Z,42.805,6.029,13.3044,4.60089,2470.297,2022-1-20T17:14:58Z